Wind_Speed
4 1 1 3 4 6 7 6 7 7 5 4 3 2 3 3 4 5 2 5 9 6 0 4 8 7 7 8 15 25 30 28 25 24 23 24 26 27 27 25 20 16 12 8 6 6 5 5 5 5 4 4 3 3 3 3 8 13 15 17 16 16 20 24 26 27 30 30 29 30 28 24 26 27 25 26 27 25 23 22 21 23 23 22 22 20
3 2 5 6 7 8 7 5 4 4 2 2 2 3 5 3 5 5 3 3 5 6 1 3 10 7 6 7 14 23 22 19 23 23 22 25 27 27 26 23 19 15 11 7 6 7 7 7 6 5 4 3 3 2 2 3 8 14 15 15 16 17 19 21 22 24 29 33 30 29 30 28 27 29 27 25 28 28 24 24 23 22 22 23 24 25
2 3 7 8 7 4 1 1 3 5 4 3 3 3 4 4 5 5 5 4 4 5 1 3 9 6 4 7 8 14 16 15 22 24 24 27 27 26 24 21 18 14 10 7 7 7 8 7 7 6 5 3 1 1 3 6 9 13 15 15 16 18 18 17 19 23 27 32 33 30 31 32 29 31 31 25 25 29 26 24 24 22 21 21 22 27
2 5 8 7 2 3 4 5 6 6 4 2 3 3 3 3 3 3 5 7 5 3 2 4 6 3 5 9 7 9 16 18 20 24 25 27 27 24 22 19 16 13 9 5 4 5 7 6 6 6 6 5 2 2 3 6 9 13 15 16 16 17 17 16 17 21 25 29 34 32 31 33 31 30 33 28 22 27 28 25 25 24 22 21 20 24
3 7 5 0 4 7 5 6 5 5 4 4 2 1 1 2 1 1 2 5 6 4 3 5 5 3 4 8 6 7 14 17 18 23 23 23 25 23 20 18 14 11 7 5 3 3 5 6 6 6 6 5 3 3 3 4 8 12 14 15 16 16 17 17 17 19 23 27 32 35 34 35 35 33 36 34 23 23 28 27 26 25 23 22 21 22
2 7 8 4 5 6 5 5 5 3 2 4 2 0 2 2 1 0 1 4 5 5 2 4 5 3 4 7 4 3 8 9 11 16 18 21 24 22 21 20 16 12 9 6 5 4 5 6 6 5 4 4 3 3 3 4 7 11 13 14 16 17 17 18 18 19 23 26 29 36 39 39 40 38 38 38 29 22 26 27 26 26 24 22 21 21
2 8 10 5 4 6 6 4 4 3 3 2 3 2 4 6 5 5 4 5 3 2 4 2 6 2 3 4 2 2 6 6 5 9 13 18 20 21 22 21 17 15 12 9 7 5 4 5 6 7 5 4 4 4 4 6 7 10 14 15 16 17 17 17 18 20 22 25 28 34 40 41 42 42 38 38 34 26 25 26 24 24 24 23 22 21
2 8 9 6 6 6 5 4 3 2 4 2 5 3 6 6 6 4 5 4 2 2 4 3 4 4 1 1 2 2 7 6 4 4 7 13 18 21 21 20 18 16 13 10 8 6 5 6 6 8 7 6 5 4 4 7 9 12 15 17 18 17 17 17 18 20 22 24 28 32 38 40 40 41 38 36 34 28 26 26 23 22 24 24 22 21
3 6 6 5 6 4 3 4 5 3 2 5 6 5 6 3 3 3 5 3 1 3 4 6 1 3 1 3 4 1 5 5 3 2 4 10 16 20 21 20 19 16 13 10 7 6 6 6 7 8 8 7 6 5 6 7 8 12 14 17 20 18 17 18 19 20 21 22 25 29 34 36 36 38 36 33 32 29 28 29 26 24 24 24 23 21
2 4 6 3 4 1 3 5 6 5 2 6 5 5 6 4 3 4 5 3 3 4 2 7 1 3 1 3 3 1 4 5 4 3 3 8 14 18 20 20 19 16 13 9 7 6 6 6 6 7 7 7 6 6 7 8 8 8 10 13 17 18 16 18 20 21 21 23 24 27 30 31 31 33 32 31 31 29 29 31 30 27 25 26 25 23
5 6 6 1 2 2 3 4 5 4 3 4 5 5 5 6 5 4 4 4 4 2 4 6 2 5 1 3 4 3 4 6 6 5 3 8 14 17 19 18 17 15 12 9 8 6 5 5 4 4 6 7 6 7 8 8 7 5 6 8 11 14 15 16 19 18 19 24 26 26 27 28 30 30 31 31 31 30 29 30 30 28 27 28 28 27
7 5 3 2 2 2 2 4 6 7 5 4 4 3 3 5 5 5 5 4 3 3 4 6 6 5 2 4 4 3 4 5 7 6 5 7 13 16 18 17 15 13 11 9 7 6 5 4 3 3 5 6 6 6 8 8 7 5 4 5 6 10 13 14 16 15 17 24 27 27 28 29 30 30 31 31 30 30 29 28 29 28 28 29 30 30
6 3 4 5 4 0 3 4 6 7 6 5 4 5 3 2 3 3 4 1 1 4 3 3 5 3 2 5 4 2 3 5 6 8 10 11 13 15 17 17 14 12 10 8 6 5 4 3 2 3 4 6 7 6 7 8 7 5 4 5 5 9 11 13 15 16 16 21 25 27 29 29 29 29 28 29 30 30 29 28 28 28 29 29 30 29
4 5 5 5 4 1 4 3 2 3 4 4 2 3 3 2 2 1 3 1 2 4 3 3 3 1 2 3 3 4 5 7 9 12 14 13 15 16 15 14 13 11 9 7 5 3 3 2 1 2 3 5 7 6 5 6 6 4 4 5 6 7 10 11 13 15 18 19 21 24 26 27 29 28 27 27 28 28 28 28 28 28 29 29 29 27
1 4 4 1 3 3 2 3 3 3 1 1 2 4 3 3 4 2 3 2 2 3 4 4 1 2 2 3 4 6 8 13 16 15 14 13 15 16 14 12 11 9 8 5 3 1 2 1 1 1 1 4 6 6 5 5 5 3 3 3 4 5 8 11 12 13 17 18 18 19 20 23 26 27 26 24 23 24 24 25 26 27 27 26 26 24
2 3 6 4 4 2 2 2 1 3 2 2 1 4 1 3 4 2 3 4 3 1 3 2 0 2 3 2 2 4 8 12 16 15 14 14 14 15 13 12 11 9 7 4 2 1 2 1 1 2 1 2 4 5 5 5 5 4 2 2 2 3 4 9 13 12 13 15 16 16 18 20 22 23 22 21 22 23 23 24 23 23 24 24 22 21
1 4 6 5 4 1 1 1 3 4 1 2 2 1 3 3 5 4 1 1 3 2 3 1 1 2 1 1 1 3 6 6 9 11 12 13 13 14 13 11 10 8 6 4 2 1 3 3 2 3 2 1 2 3 4 4 4 4 4 2 1 2 0 4 9 10 11 12 12 14 17 17 19 21 22 21 21 22 22 22 20 19 21 21 20 19
2 3 6 3 3 4 2 3 4 3 2 2 1 3 2 2 4 3 1 2 3 1 3 2 2 2 1 2 3 3 6 4 4 7 9 11 12 12 12 11 9 7 6 3 1 1 1 2 3 3 2 1 2 2 2 3 3 2 3 3 1 1 1 2 4 7 11 12 11 14 15 14 16 19 20 20 19 20 20 19 19 18 17 18 18 18
3 1 6 2 1 5 5 5 3 5 3 3 4 4 2 2 0 1 1 1 1 1 3 3 2 3 4 4 5 7 8 7 6 6 7 8 11 12 12 12 10 8 6 3 2 2 2 1 2 1 1 1 1 2 1 2 3 2 1 2 2 1 0 3 5 6 7 11 12 13 12 10 12 14 15 17 18 19 19 19 19 19 17 17 17 17
2 2 4 5 2 3 5 4 0 4 5 4 2 1 2 3 3 2 2 3 3 2 2 2 2 3 5 5 7 10 10 8 8 6 6 9 12 13 13 12 10 9 6 5 5 4 2 2 2 1 1 1 2 2 3 2 1 2 2 1 1 2 1 2 4 5 5 8 10 11 9 6 8 9 12 16 17 18 19 18 17 17 17 16 16 16
2 3 2 6 4 3 2 1 3 4 1 3 2 0 0 1 2 1 1 2 3 3 2 2 2 5 5 4 7 10 9 9 10 7 7 12 14 13 13 13 11 10 8 6 6 5 4 3 3 1 1 2 2 3 3 4 4 1 2 1 1 1 2 2 0 3 4 5 6 11 11 4 5 9 12 15 17 17 17 17 17 17 16 16 16 16
1 1 1 3 4 1 3 4 2 4 4 3 2 3 3 3 3 2 2 2 2 2 3 4 3 6 5 3 5 7 6 8 12 12 10 13 16 14 13 13 11 11 10 8 7 6 5 4 3 1 1 2 3 3 2 4 7 3 2 1 1 2 3 3 1 1 2 1 1 7 7 2 8 10 13 14 16 16 17 18 18 18 18 18 17 17
2 3 2 2 3 3 6 7 4 2 3 5 2 3 3 3 4 4 3 3 0 0 1 2 1 6 5 3 5 6 8 12 16 17 15 15 17 15 13 12 12 12 11 9 8 6 4 4 4 3 1 1 2 3 3 2 5 4 2 1 1 3 3 2 2 1 2 2 0 2 4 7 14 18 19 16 13 13 15 16 16 16 18 20 20 21
1 2 2 3 4 3 5 5 4 3 4 4 0 1 3 3 3 4 4 3 1 2 1 1 2 5 5 2 5 7 11 13 16 19 19 18 17 15 13 11 12 13 12 10 8 5 4 3 4 5 4 1 1 3 5 4 2 2 3 2 2 3 5 4 2 0 2 5 3 1 3 4 9 16 21 21 19 17 16 16 14 13 15 17 18 17
0 0 2 2 3 5 5 5 6 5 2 1 2 2 3 4 4 2 1 3 1 3 4 3 4 5 5 1 4 6 8 9 14 20 22 20 17 15 13 11 11 13 11 10 7 5 5 5 4 4 4 3 2 3 6 5 3 1 1 3 4 5 6 5 3 1 3 5 6 4 3 4 2 7 12 16 18 18 18 18 17 15 15 15 15 13
2 2 3 3 2 0 1 2 3 3 2 1 2 2 4 4 5 3 1 3 1 3 4 4 4 5 4 1 4 5 5 7 11 17 19 19 18 16 14 14 14 13 11 10 8 6 7 8 7 6 5 4 3 4 7 5 4 3 4 5 4 5 6 5 3 2 3 4 6 5 5 6 4 2 5 7 10 11 13 15 16 16 16 16 15 14
3 1 2 5 5 5 5 5 4 2 1 2 3 3 5 5 5 4 3 2 3 3 3 4 5 3 4 3 5 6 7 7 9 14 17 18 18 16 15 16 15 14 12 12 10 9 9 9 9 7 5 5 4 3 6 7 4 1 5 5 4 6 5 4 2 3 4 4 4 3 4 6 7 5 3 3 4 5 7 10 11 13 14 14 14 14
4 1 2 4 6 6 7 7 5 3 3 4 4 5 6 6 6 6 3 4 4 4 3 7 5 4 6 7 8 8 9 8 9 15 19 19 18 16 16 17 17 16 15 14 12 12 11 10 10 8 7 7 3 2 7 7 3 2 6 4 5 6 4 3 1 1 1 2 2 3 2 3 5 5 4 4 4 5 6 7 8 11 13 13 13 13
4 1 4 3 4 7 6 6 4 4 3 4 4 6 6 6 7 7 8 7 6 5 6 6 6 7 7 8 9 10 12 13 16 21 22 20 18 17 16 18 20 19 17 15 14 14 12 10 10 10 9 7 4 3 7 8 5 5 6 4 6 6 5 3 2 2 3 2 3 5 5 3 2 2 2 3 5 6 6 7 8 10 12 13 13 12
3 2 4 3 2 7 7 5 5 5 4 3 4 7 7 7 8 8 8 8 8 8 7 5 8 9 7 6 9 13 17 20 22 22 21 20 19 19 19 21 21 21 19 17 17 16 13 8 8 9 10 8 6 5 8 8 7 7 6 4 7 7 5 4 3 4 4 4 4 4 3 3 2 2 2 1 3 5 5 6 7 8 10 10 10 10
1 2 3 3 2 6 7 4 4 8 8 6 6 8 8 7 7 6 6 6 6 7 6 5 6 8 6 5 8 13 18 20 19 19 21 22 22 21 22 23 22 21 21 20 19 17 13 10 9 7 6 7 4 5 9 9 8 6 5 5 8 7 5 4 4 4 4 4 4 3 2 1 0 2 2 1 1 3 4 5 6 7 8 9 10 10
2 2 1 4 3 5 5 4 2 4 5 5 7 10 10 7 5 5 5 5 6 6 3 3 3 6 5 3 7 13 18 19 18 20 23 24 24 23 23 24 24 22 21 21 20 18 15 13 11 8 6 5 3 4 10 10 7 6 6 7 7 4 3 4 3 4 4 4 3 2 1 1 2 2 3 2 2 3 4 4 4 5 7 8 10 11
4 2 0 2 0 5 5 4 4 1 1 3 7 10 11 9 6 5 4 5 6 6 5 4 5 6 5 5 6 9 12 15 19 23 25 26 25 25 24 25 24 22 21 20 20 20 18 15 13 9 7 6 3 5 10 7 4 4 6 6 4 1 4 6 3 1 2 2 2 1 0 2 4 4 4 5 5 6 6 5 4 4 5 6 8 9
4 5 2 3 2 5 6 4 4 2 0 5 7 8 11 10 8 7 5 5 6 5 4 4 5 4 6 7 8 10 14 20 26 29 29 27 27 26 25 24 23 21 21 19 18 20 20 18 15 11 8 8 6 4 5 3 1 2 4 5 4 2 4 4 2 1 2 3 2 1 2 3 5 6 7 7 7 7 7 7 6 6 6 6 7 8
4 5 2 2 3 3 4 5 4 2 6 7 6 3 8 9 8 8 5 5 7 6 2 2 4 7 11 14 17 20 24 27 29 29 28 27 27 26 25 25 23 21 21 20 20 22 22 19 16 12 10 12 10 5 3 2 2 3 5 7 5 3 3 4 2 1 1 2 2 2 3 4 6 7 8 8 8 8 7 7 7 7 7 7 7 8
5 4 3 1 2 1 2 2 1 5 7 6 7 4 3 4 5 4 3 7 7 7 6 6 7 9 14 17 20 22 25 24 23 25 27 27 26 25 25 26 23 20 20 21 22 22 22 20 17 15 14 14 12 8 5 3 4 4 6 9 7 4 4 5 4 2 1 1 1 2 3 5 6 6 7 8 9 9 9 8 8 8 8 8 7 8
7 4 2 2 2 1 1 2 2 4 5 5 6 3 3 3 4 6 3 7 6 6 8 9 7 8 12 17 19 19 18 15 12 16 25 27 24 23 23 22 19 19 22 22 19 19 21 20 16 15 14 13 12 10 7 6 6 6 6 7 5 4 5 4 2 2 1 2 2 2 4 6 6 6 6 8 9 8 8 7 7 7 7 7 7 7
6 4 4 3 2 2 2 2 3 3 3 5 7 7 6 5 6 7 4 4 7 7 11 11 8 10 13 14 17 16 13 8 3 12 25 28 25 25 24 19 18 22 24 21 19 21 21 17 14 12 10 10 10 10 8 8 7 6 6 6 4 4 5 6 4 2 2 3 2 3 5 6 6 6 6 7 6 4 4 5 6 7 6 5 5 4
4 2 5 4 2 1 2 1 2 2 5 7 9 10 7 7 9 8 4 4 7 6 12 12 10 13 17 19 20 16 10 5 4 14 27 30 27 28 26 20 21 23 21 19 20 20 17 12 10 8 6 8 9 8 8 8 6 6 6 6 4 3 4 6 6 5 4 4 3 3 5 7 7 6 4 3 2 4 6 7 8 8 9 9 9 8
4 3 4 4 4 2 3 3 3 3 6 7 7 8 8 10 11 8 2 6 6 5 12 15 16 18 21 25 24 15 8 9 10 17 28 31 28 28 25 23 24 21 17 17 16 14 12 9 8 6 6 7 7 7 9 9 6 6 6 5 4 3 3 4 5 5 5 4 3 3 6 7 6 4 1 3 6 8 9 10 10 8 9 11 12 14
2 1 2 4 5 4 4 3 3 3 6 8 7 10 11 9 7 3 3 7 7 8 10 14 20 24 24 26 24 16 16 19 15 15 23 28 26 25 24 22 21 17 14 15 13 12 11 9 8 8 9 9 8 9 10 9 7 7 7 5 4 4 4 3 3 4 6 6 4 4 5 4 3 3 2 7 9 9 10 11 11 9 9 11 12 13
2 1 1 3 4 3 4 3 3 4 8 8 8 11 11 7 1 5 6 7 12 13 9 8 15 22 26 28 26 23 22 19 14 13 21 27 27 26 24 20 18 14 12 12 12 12 13 12 11 11 12 12 10 11 12 11 9 8 8 7 6 6 5 5 5 5 6 6 5 3 3 2 4 5 3 8 10 8 9 10 11 10 8 8 8 9
5 3 2 3 3 3 2 2 2 5 7 8 10 6 5 5 4 6 9 11 14 15 10 7 10 15 23 27 24 20 18 16 15 19 25 28 27 24 21 18 16 15 14 14 14 14 15 15 13 12 13 14 13 13 14 14 11 8 7 7 6 6 6 6 6 7 6 6 6 7 6 3 3 3 6 11 11 8 8 8 8 9 8 4 5 7
3 4 3 3 3 4 3 4 5 5 7 14 15 7 8 11 9 9 13 13 14 14 12 9 9 12 19 24 22 19 21 23 24 24 25 25 22 20 19 17 16 16 16 17 17 16 15 16 14 13 14 15 14 14 15 13 10 8 8 7 6 6 6 6 6 6 6 8 8 7 7 4 2 5 10 12 10 8 6 6 6 7 8 4 4 5
8 8 6 4 4 4 5 7 8 7 8 17 20 12 12 15 12 11 14 14 14 16 14 12 12 13 18 24 24 25 27 28 28 25 23 21 19 19 19 17 17 18 17 17 18 17 16 17 15 13 13 12 11 13 13 11 9 7 6 6 6 6 6 7 6 4 6 10 10 7 7 5 5 9 12 10 7 8 5 4 5 6 6 5 5 6
11 11 5 2 3 4 4 7 9 7 9 19 23 15 11 14 15 14 15 14 14 16 16 14 13 15 20 24 26 29 30 29 28 25 21 19 19 20 20 19 18 18 17 18 19 18 16 15 13 10 9 10 10 11 11 9 8 8 6 5 4 3 4 6 5 4 6 12 11 8 6 6 6 9 11 9 8 7 5 5 6 7 8 7 7 8
5 8 4 1 2 3 3 6 8 10 13 20 23 17 13 16 18 16 16 15 12 13 15 15 14 16 20 22 24 28 29 28 27 24 21 22 22 21 21 21 21 21 20 19 20 17 14 12 12 8 7 10 11 11 9 9 9 9 6 3 3 2 3 5 6 5 7 13 13 9 6 7 8 8 8 8 7 6 5 7 8 8 9 9 9 10
1 6 5 2 3 4 4 8 8 9 14 19 22 22 18 19 21 18 15 14 12 12 15 16 16 19 20 20 22 25 26 27 27 24 24 25 24 22 22 23 24 23 20 18 18 16 12 11 12 9 8 10 12 12 11 11 10 9 7 4 2 2 2 3 5 5 8 13 13 9 7 9 9 7 7 7 6 5 6 6 7 7 8 9 9 10
1 3 4 3 3 2 6 9 6 4 7 13 21 26 24 21 21 19 16 15 15 16 18 20 19 18 19 20 21 23 25 27 26 24 25 26 25 23 24 24 23 22 20 18 18 16 13 13 14 12 10 10 11 13 14 13 11 10 8 4 1 0 1 2 3 5 9 13 13 9 7 7 8 7 8 7 6 5 5 5 6 5 6 7 9 10
2 3 2 2 2 3 4 5 2 1 4 11 16 23 27 26 22 19 18 18 20 21 22 22 19 16 16 18 19 21 24 27 26 25 25 25 24 25 25 24 23 22 21 20 19 16 15 15 15 14 13 12 11 13 15 15 14 12 9 6 3 1 1 2 2 6 10 12 12 10 8 7 7 7 8 8 7 5 4 5 5 4 3 5 9 10
7 6 3 4 4 5 7 9 6 3 5 9 12 14 20 26 25 22 21 21 21 22 23 22 21 20 18 19 19 20 23 26 27 26 26 24 23 24 24 23 24 24 23 22 20 18 17 15 13 13 14 14 13 13 14 14 15 14 11 8 6 3 1 1 3 7 11 11 10 10 8 7 7 7 9 9 8 6 5 5 5 5 4 5 8 10
Wind_Direction
186 96 298 217 230 245 258 238 216 232 233 245 282 335 291 282 294 276 241 155 142 112 81 150 132 154 155 127 122 122 121 123 130 131 129 126 118 111 105 100 96 91 84 69 49 46 36 23 20 8 359 344 337 340 319 269 227 230 235 236 234 226 221 225 230 233 230 224 217 218 219 217 213 208 203 205 208 208 209 211 207 207 208 209 212 211
133 159 241 227 225 234 244 238 231 263 310 5 30 4 338 325 312 323 53 85 110 95 348 107 114 147 160 130 130 128 123 129 136 133 129 123 114 110 107 105 105 103 96 77 47 42 31 22 17 8 7 339 326 332 304 256 230 228 229 235 236 228 224 226 231 233 231 228 224 221 219 217 217 214 203 200 207 208 207 207 207 208 210 212 213 212
112 222 250 241 230 223 229 70 27 350 7 19 21 32 352 329 324 346 19 4 55 96 299 65 101 134 118 88 110 120 118 127 130 127 124 118 112 113 114 114 115 111 100 76 45 28 20 19 16 6 8 357 315 277 258 251 246 234 227 230 230 227 225 225 230 233 232 230 228 225 220 215 214 214 208 202 205 208 208 209 210 209 211 215 217 216
173 251 250 236 214 79 27 16 30 8 2 4 8 28 322 324 19 5 344 344 11 91 134 82 91 102 73 74 53 74 105 115 117 117 118 118 119 121 122 121 118 114 107 86 47 19 13 16 14 4 1 3 340 269 258 257 254 239 231 232 229 225 223 221 225 229 232 231 228 225 220 215 212 212 212 209 204 206 209 211 213 212 213 217 217 216
204 274 285 96 47 56 29 353 23 28 351 319 340 86 306 341 79 194 300 356 4 11 81 83 62 360 43 84 55 54 96 104 110 114 113 117 122 123 123 120 116 112 110 102 81 38 21 21 21 7 348 348 336 281 274 269 249 232 228 230 227 225 223 222 222 222 224 227 225 221 216 213 211 209 210 211 205 202 206 211 214 215 217 221 218 214
246 325 359 39 19 35 57 6 4 55 359 318 311 96 23 28 30 303 33 54 33 349 321 96 77 347 5 72 72 55 89 89 102 111 113 120 124 126 125 120 118 115 114 113 102 80 48 37 31 18 348 318 296 259 252 262 242 225 222 221 220 221 222 223 220 215 216 220 221 218 215 212 211 208 207 210 208 200 202 208 213 218 220 222 219 216
333 9 22 39 11 26 56 17 348 95 97 329 267 274 8 32 18 12 44 69 91 274 276 103 114 163 348 32 37 84 97 84 80 102 119 129 129 130 127 123 125 125 123 124 111 98 70 43 28 23 10 325 291 259 238 238 232 224 220 219 218 217 216 217 216 212 210 214 217 218 218 217 213 209 206 210 209 200 201 206 210 218 221 221 221 222
327 15 22 23 23 30 35 1 303 107 95 278 262 316 11 26 11 12 58 68 152 229 313 357 108 135 95 323 255 117 94 75 55 76 117 131 130 131 131 128 127 127 128 128 115 97 71 43 31 21 11 348 320 296 273 255 237 224 218 216 216 214 213 213 216 214 210 211 214 218 221 221 219 213 208 212 213 207 206 206 207 217 221 221 223 225
339 22 3 3 30 32 357 318 301 360 57 256 271 347 4 360 355 25 53 38 29 54 344 316 31 108 152 206 225 160 103 101 99 106 119 131 130 129 132 130 126 127 129 126 114 94 69 49 37 24 13 359 335 307 299 298 268 238 226 220 215 214 215 215 219 222 217 213 215 220 221 221 219 213 209 212 215 213 213 211 211 219 223 223 222 223
329 343 308 327 65 22 288 299 326 2 328 276 311 13 14 0 3 23 33 26 30 51 305 282 319 112 200 226 215 181 136 154 172 177 143 131 129 126 129 131 128 128 129 124 115 95 72 56 44 25 11 5 346 319 314 322 310 266 242 233 226 221 218 218 222 225 220 213 214 219 219 217 214 210 208 211 212 213 215 217 219 223 227 225 221 222
304 313 308 358 116 239 272 312 343 0 320 324 5 25 22 4 9 20 17 55 54 4 266 281 335 111 179 256 204 196 201 182 168 178 165 126 126 126 129 133 132 129 127 123 110 91 71 56 47 21 359 2 356 330 319 319 321 302 259 249 240 227 218 219 225 227 220 210 210 215 213 211 211 207 206 209 210 213 215 217 220 223 227 226 224 226
332 344 332 329 317 305 21 354 338 352 8 35 33 38 29 342 1 20 354 42 81 264 266 311 351 81 133 247 231 240 233 186 161 168 171 136 129 128 128 131 130 125 121 114 100 84 71 50 28 8 349 360 10 348 331 324 319 309 270 259 250 226 215 217 224 226 216 208 209 214 212 211 213 210 206 207 210 213 214 215 218 220 224 226 227 230
331 310 296 316 317 316 79 17 335 347 15 43 42 56 72 336 2 11 316 343 187 240 247 336 360 59 196 241 233 224 178 180 181 166 154 141 136 132 127 125 123 120 114 102 91 73 54 47 27 14 7 14 24 12 348 334 322 310 274 262 249 223 217 222 225 220 211 208 211 215 214 213 215 215 212 213 215 215 215 216 219 222 224 226 229 232
329 311 322 341 325 250 122 92 327 320 10 42 75 103 113 107 75 290 272 287 273 259 268 324 5 45 272 279 220 184 149 146 154 152 145 138 137 135 130 128 123 117 110 101 97 68 31 59 76 15 26 35 34 24 2 349 341 332 300 274 255 231 226 227 226 220 214 212 214 218 217 215 215 216 215 217 219 218 217 217 220 225 227 228 230 232
73 314 309 313 311 332 77 124 198 201 63 11 150 129 131 149 144 204 227 201 238 268 296 310 343 159 204 265 227 180 139 123 127 133 130 127 134 136 135 138 136 127 121 118 112 54 357 65 117 317 26 64 53 43 28 18 18 11 334 295 272 253 241 227 222 223 219 217 219 223 223 218 216 215 214 215 217 215 214 215 220 226 228 231 232 232
113 264 259 263 285 324 31 330 298 96 76 300 56 88 124 188 146 151 191 180 177 248 314 305 212 196 196 253 260 152 127 121 128 132 128 128 138 142 141 143 145 147 148 148 145 263 298 313 242 279 300 107 80 56 34 21 29 37 22 322 291 289 252 220 222 232 233 230 229 232 230 220 211 210 209 208 208 210 212 213 216 222 225 228 230 227
53 274 271 309 322 309 106 352 50 84 154 281 39 97 229 178 119 117 215 352 84 99 281 243 165 305 313 306 296 137 130 130 135 139 140 140 140 143 146 147 152 159 161 166 175 213 302 307 253 259 295 154 125 73 42 18 14 32 44 26 309 310 336 201 224 243 248 243 235 236 238 221 201 202 205 203 202 208 214 214 216 222 224 225 226 224
135 285 287 331 334 299 326 71 64 68 123 115 142 214 218 58 76 102 114 356 45 128 266 260 191 219 187 231 257 178 165 183 166 142 142 144 141 144 149 150 154 156 158 173 194 181 291 296 234 236 312 311 175 157 61 30 356 9 65 66 47 284 260 188 217 243 248 251 244 236 238 223 204 204 204 204 207 211 214 216 218 220 220 223 226 226
122 334 295 299 269 296 346 56 32 347 25 114 167 183 115 84 7 72 119 147 115 201 267 289 238 212 204 214 213 195 191 198 189 157 143 145 143 142 144 146 147 145 155 167 154 174 210 243 218 227 307 294 184 202 181 48 354 321 28 67 65 33 283 203 227 247 246 249 246 239 236 220 210 209 201 202 207 209 213 216 218 220 222 224 225 228
110 99 285 292 295 321 2 41 289 308 345 36 78 70 77 141 162 172 181 164 152 188 233 277 297 252 232 210 189 197 200 186 180 174 163 159 149 142 143 146 147 146 152 153 146 160 163 175 217 265 290 245 136 176 213 220 281 327 8 19 71 70 79 173 241 270 266 251 239 236 240 209 184 181 183 193 199 202 209 214 217 223 225 224 224 227
68 97 253 294 334 18 357 262 180 190 277 12 32 355 338 102 121 155 213 155 140 159 185 188 246 262 249 203 181 198 202 184 179 178 177 169 157 152 154 153 153 154 156 162 168 171 160 181 226 291 303 232 146 142 205 249 265 300 60 26 200 154 132 131 235 278 277 278 240 229 240 232 152 151 161 181 194 200 204 209 216 219 218 219 226 228
67 111 184 295 333 349 253 258 204 171 164 146 182 199 175 143 125 121 282 275 146 160 178 165 220 267 259 189 177 198 197 188 182 173 171 170 161 161 168 168 168 168 167 175 183 177 169 188 223 265 307 241 216 167 164 248 261 246 122 124 223 189 147 117 67 276 238 277 225 224 231 64 87 119 139 163 184 193 196 203 213 213 206 207 216 220
126 110 104 276 261 238 259 276 278 231 135 114 156 192 149 126 125 137 212 250 247 257 208 136 213 270 263 184 170 191 187 182 181 171 160 162 165 170 178 183 189 188 183 184 185 182 183 199 217 221 208 182 200 169 151 208 260 250 203 163 275 245 211 154 80 353 265 253 275 206 178 100 93 106 116 130 150 167 178 193 206 205 199 202 207 213
71 92 79 296 294 299 292 301 313 334 71 89 222 203 141 144 156 163 179 172 173 253 197 107 255 270 279 215 164 177 177 170 173 172 162 160 168 175 182 192 204 205 197 188 185 192 203 204 208 210 205 176 148 157 161 177 251 267 233 254 315 277 236 213 179 114 271 260 266 260 178 145 108 109 113 118 123 130 141 157 174 181 186 195 201 206
202 161 85 37 353 345 336 343 341 340 13 154 231 236 193 162 136 129 92 102 158 234 164 148 236 256 280 258 139 155 164 158 169 174 170 168 171 178 184 190 197 199 195 189 189 203 204 188 173 175 179 177 181 172 167 175 209 244 295 299 290 265 242 239 243 235 248 248 251 259 229 213 167 117 118 119 121 125 131 137 143 147 154 163 170 177
153 174 113 112 120 224 269 280 272 272 301 266 228 221 216 184 146 143 104 105 217 237 162 161 229 261 290 245 150 166 164 158 170 173 176 179 179 184 187 188 191 193 194 196 199 210 208 192 180 171 156 135 119 162 183 196 217 233 331 326 246 222 231 239 258 284 282 265 251 248 231 226 231 165 132 124 123 132 141 143 144 145 146 151 157 161
94 115 146 149 168 192 207 227 229 182 148 262 257 239 221 203 175 141 108 146 199 199 198 221 209 226 271 224 185 193 175 168 175 172 177 184 186 192 195 194 195 194 198 203 205 213 217 209 202 195 182 162 109 122 194 211 214 215 354 348 179 176 194 215 251 289 290 293 286 267 233 229 240 244 227 194 162 160 166 163 161 161 160 161 166 165
70 335 237 179 198 219 218 226 221 164 189 232 240 239 225 203 171 148 172 210 173 141 245 252 198 185 244 222 198 199 185 178 179 176 183 190 191 197 202 199 199 199 203 206 207 213 220 219 215 208 193 182 137 108 183 187 164 62 19 21 158 154 155 184 256 293 260 311 358 55 97 194 223 234 239 230 217 213 205 193 184 182 182 183 184 183
94 228 234 197 237 255 243 233 205 168 224 248 237 236 228 210 185 180 208 214 171 172 238 241 190 197 231 219 203 200 187 182 184 185 191 196 196 200 205 204 205 207 205 201 200 210 218 218 216 216 201 176 113 97 164 154 107 61 33 51 141 140 135 139 95 88 103 83 70 74 77 86 113 175 195 209 213 213 211 207 199 194 195 198 199 201
107 221 236 182 275 287 275 246 188 182 234 257 249 247 235 227 217 206 219 217 190 206 234 217 202 220 229 212 211 207 193 187 187 188 192 195 196 201 207 208 211 211 207 201 201 208 211 201 194 205 199 172 125 120 154 142 105 78 56 82 129 126 119 119 110 111 108 99 98 87 85 87 80 148 179 199 214 213 214 216 214 208 207 209 211 215
135 245 242 116 30 300 281 263 190 194 217 227 241 251 245 245 247 235 237 227 204 232 246 203 207 241 249 222 211 200 188 183 183 185 190 196 199 203 208 212 213 211 207 206 204 204 204 193 177 173 173 166 153 149 151 138 112 85 68 109 134 123 115 123 116 117 118 111 111 100 93 112 129 185 192 242 251 228 228 224 224 225 224 227 229 233
153 236 336 68 28 283 276 320 312 207 214 241 258 255 243 237 237 227 225 211 200 220 226 164 206 250 249 203 178 179 176 176 180 186 192 198 201 204 211 215 215 211 206 205 204 203 205 200 184 168 162 183 219 167 150 137 114 90 83 117 138 125 134 161 145 119 124 120 116 105 70 311 279 241 221 246 263 260 259 250 238 231 230 233 236 237
145 146 118 104 118 272 276 322 327 14 73 282 262 238 227 224 227 233 242 226 200 180 166 188 228 233 202 152 149 167 173 177 186 191 195 200 202 207 214 219 219 216 210 210 212 209 206 200 191 180 173 192 212 152 148 140 107 102 104 120 141 115 139 169 187 168 166 158 139 127 38 287 285 286 270 266 268 270 272 276 277 263 248 246 244 244
149 132 166 156 148 273 287 333 350 13 232 256 246 212 202 205 209 215 228 228 212 185 170 206 219 190 165 162 166 176 186 192 197 200 201 203 203 207 216 222 224 225 223 222 217 205 197 190 186 182 174 183 191 164 159 173 162 148 136 137 152 133 127 148 169 196 200 199 196 219 278 283 287 291 288 283 279 277 278 283 291 289 276 264 255 254
151 141 170 162 144 246 306 18 25 261 236 252 276 241 190 183 178 188 222 244 224 212 196 184 180 175 180 188 186 185 191 198 201 203 204 206 205 207 216 222 226 232 230 217 200 191 187 183 182 180 181 192 204 208 196 188 179 170 155 153 168 178 133 120 105 110 176 192 208 253 283 288 293 295 294 292 287 288 290 291 297 299 291 280 266 258
151 149 171 179 153 233 342 56 178 251 260 280 311 314 181 147 127 147 272 281 235 201 186 187 197 194 191 196 194 191 195 197 197 202 205 206 209 211 215 220 227 231 217 194 184 185 185 184 183 180 185 200 210 209 194 176 173 165 153 158 174 189 160 133 111 106 124 217 241 281 303 305 306 300 294 291 293 301 309 312 314 315 310 304 294 283
146 140 167 213 215 186 190 213 240 296 302 295 294 270 192 183 161 152 215 272 251 208 187 183 195 199 195 201 202 197 191 185 190 209 209 208 211 212 214 221 224 212 194 184 188 191 185 181 182 182 191 208 216 209 196 178 179 177 161 163 178 188 185 182 156 140 203 278 271 296 316 319 318 310 298 298 304 314 324 333 340 339 333 325 314 306
156 163 173 195 238 129 122 297 328 346 294 256 248 252 249 225 180 139 135 275 278 236 194 175 177 191 192 198 198 188 175 160 185 222 212 210 211 211 214 218 205 189 183 182 185 183 177 178 182 184 196 211 215 214 199 176 179 195 189 181 187 191 199 212 217 209 239 262 263 286 307 316 321 321 313 312 319 338 7 27 30 28 29 23 8 4
152 136 135 147 216 141 123 213 230 225 256 248 244 260 258 193 149 102 72 283 286 236 191 172 167 182 185 183 179 169 157 157 224 223 213 210 211 211 211 201 183 178 178 175 174 174 172 172 171 172 193 207 214 221 207 193 195 205 204 201 203 212 219 217 217 220 236 249 251 276 299 309 316 322 327 337 37 73 76 66 58 60 68 66 62 72
129 96 115 154 211 211 159 204 235 236 255 259 245 237 209 161 126 81 17 264 260 208 184 171 167 177 180 175 169 161 166 191 213 216 209 207 208 207 202 186 175 175 176 172 173 176 175 170 167 168 180 196 219 229 206 199 201 192 194 205 215 243 260 227 212 208 210 213 213 258 291 301 313 326 17 106 94 86 82 71 61 66 83 86 89 99
129 133 159 174 200 195 179 223 269 254 253 261 235 201 172 133 104 95 236 229 203 180 175 171 173 179 177 170 169 181 196 202 213 211 199 198 198 192 186 182 180 181 182 182 184 186 186 188 189 189 184 185 208 219 202 197 203 198 200 213 229 261 285 264 228 196 183 195 213 250 277 296 2 24 101 118 98 84 80 68 55 58 85 99 103 111
159 167 161 162 185 187 178 216 279 283 262 241 206 183 160 130 156 233 202 171 169 170 164 165 178 182 181 179 182 192 199 205 223 215 194 190 188 180 177 181 183 182 184 188 194 200 204 203 195 195 197 194 198 208 208 209 212 209 213 225 237 263 285 270 240 209 193 202 205 192 185 124 46 31 111 121 99 84 80 68 53 49 70 105 115 111
175 176 200 193 180 156 156 193 234 281 258 189 156 149 158 166 212 201 168 163 175 178 173 172 179 185 190 191 189 191 195 195 197 191 181 178 178 176 180 188 187 184 186 190 201 210 212 208 201 198 203 204 203 205 209 211 213 215 226 237 246 272 284 263 230 219 209 192 165 152 158 148 37 46 127 119 101 91 80 66 53 43 44 77 125 117
182 172 193 220 189 141 157 206 208 241 225 178 162 168 205 209 211 183 173 181 189 187 185 186 186 187 193 195 188 178 176 171 167 169 169 171 176 180 184 190 191 192 196 201 206 209 207 206 203 195 195 201 204 202 201 204 211 224 238 248 263 275 263 229 214 222 204 168 152 151 160 158 115 124 125 113 107 112 90 58 50 42 35 50 108 118
209 193 176 190 204 177 183 209 217 235 220 191 189 200 207 206 205 192 188 190 191 194 195 190 190 191 192 191 182 172 171 169 167 170 173 175 182 185 185 189 193 196 201 203 199 194 192 196 198 196 197 200 196 195 199 205 215 236 254 269 280 268 224 202 214 230 185 159 151 154 161 160 143 133 126 118 129 138 109 54 59 59 47 60 90 96
211 197 166 133 216 231 249 242 229 225 199 191 198 209 203 194 194 193 196 197 198 203 202 196 194 190 186 186 180 175 177 176 173 176 179 180 186 190 186 184 187 190 191 189 184 178 179 188 196 199 206 206 194 194 206 215 231 255 272 283 288 267 203 207 240 249 184 164 156 156 165 166 152 140 134 133 144 140 102 69 79 79 68 72 88 95
215 182 169 127 173 183 253 258 235 222 216 206 202 200 197 196 198 199 203 206 200 196 200 203 196 181 180 186 185 181 183 184 180 182 184 183 189 193 186 180 182 185 184 183 181 177 177 187 193 193 204 211 209 213 224 229 239 252 257 263 292 290 227 235 258 255 196 170 161 162 167 156 148 146 142 140 140 131 103 85 80 75 73 77 87 95
244 167 178 205 172 168 236 258 247 238 242 232 215 208 208 206 203 206 213 211 193 183 190 194 184 174 176 186 191 188 186 186 187 190 188 187 192 194 186 181 181 182 181 182 182 180 179 184 189 193 203 208 213 223 227 223 227 236 238 251 290 285 244 259 263 241 195 170 164 168 165 154 153 153 152 154 150 135 121 102 80 67 72 82 91 95
265 197 202 197 193 235 272 276 280 277 267 248 226 221 225 221 211 208 210 200 184 178 180 180 177 176 176 180 189 192 188 185 187 188 185 185 189 189 183 181 181 181 183 185 185 185 188 189 189 193 197 201 213 224 222 219 225 231 229 235 261 350 351 322 276 208 175 164 167 170 160 161 171 164 157 166 167 146 132 118 100 79 71 88 101 101
245 240 215 152 179 249 256 266 294 358 274 265 247 235 234 232 221 207 197 189 184 181 180 178 179 179 177 179 185 187 186 186 187 186 183 183 184 184 183 183 184 184 186 187 186 186 190 193 192 192 191 195 210 222 222 224 229 228 223 224 229 242 333 321 242 173 159 162 176 181 170 176 191 180 169 176 178 171 165 146 130 119 96 105 115 111
224 226 200 160 185 233 263 284 293 258 251 291 309 288 253 236 226 216 206 199 193 188 185 183 181 179 180 186 189 186 186 188 188 188 189 187 182 181 185 189 190 185 182 183 184 183 188 197 202 199 195 195 201 211 215 218 219 220 222 226 230 236 265 269 209 182 174 179 190 191 186 196 213 211 197 187 179 182 188 175 161 160 152 138 132 123
Height
1507 1511 1513 1513 1512 1511 1510 1511 1511 1509 1509 1509 1510 1510 1510 1510 1507 1498 1495 1494 1495 1501 1507 1507 1510 1513 1514 1516 1517 1518 1517 1519 1524 1525 1527 1528 1529 1529 1529 1530 1530 1531 1532 1533 1533 1533 1532 1531 1530 1529 1529 1530 1531 1532 1533 1534 1534 1534 1533 1533 1534 1536 1537 1539 1540 1541 1543 1545 1547 1550 1553 1554 1554 1555 1556 1557 1558 1559 1560 1562 1563 1564 1566 1568 1569 1570
1508 1514 1513 1510 1509 1509 1508 1508 1508 1507 1506 1506 1509 1510 1509 1509 1506 1497 1495 1496 1494 1501 1508 1507 1510 1514 1514 1516 1517 1515 1517 1519 1520 1522 1524 1525 1525 1526 1526 1528 1530 1531 1532 1532 1532 1532 1531 1530 1529 1529 1530 1530 1531 1532 1532 1532 1533 1532 1532 1533 1533 1534 1535 1536 1537 1538 1539 1541 1543 1545 1549 1553 1554 1554 1554 1554 1556 1558 1559 1560 1562 1564 1565 1567 1569 1570
1513 1514 1509 1507 1508 1507 1506 1505 1506 1507 1506 1507 1509 1510 1510 1508 1505 1500 1497 1497 1497 1501 1507 1506 1511 1516 1515 1518 1520 1517 1517 1520 1521 1520 1521 1522 1522 1524 1525 1527 1529 1531 1532 1532 1531 1531 1530 1530 1530 1529 1530 1530 1531 1531 1531 1531 1531 1531 1531 1532 1532 1532 1533 1534 1534 1534 1535 1537 1539 1541 1545 1549 1551 1552 1553 1553 1554 1556 1557 1559 1560 1562 1564 1566 1568 1569
1516 1513 1506 1505 1506 1504 1505 1504 1505 1507 1507 1508 1509 1511 1513 1510 1510 1509 1503 1500 1499 1501 1505 1507 1512 1517 1518 1521 1523 1522 1521 1523 1524 1523 1522 1522 1523 1524 1526 1527 1528 1530 1531 1532 1532 1531 1530 1530 1530 1530 1529 1530 1530 1530 1530 1530 1529 1529 1530 1530 1530 1531 1532 1532 1532 1532 1533 1534 1537 1540 1542 1545 1548 1550 1551 1552 1553 1553 1555 1557 1559 1561 1562 1564 1566 1567
1513 1509 1503 1504 1505 1504 1506 1506 1506 1509 1510 1510 1509 1511 1513 1511 1512 1512 1507 1503 1503 1503 1504 1507 1515 1521 1524 1527 1527 1526 1525 1525 1526 1525 1525 1525 1525 1526 1527 1526 1527 1529 1531 1532 1532 1531 1531 1530 1530 1530 1529 1529 1529 1529 1528 1528 1527 1527 1528 1528 1528 1529 1529 1529 1530 1530 1531 1532 1534 1537 1540 1542 1544 1546 1547 1549 1551 1551 1552 1555 1557 1559 1561 1563 1564 1565
1510 1507 1503 1504 1505 1505 1507 1508 1508 1511 1513 1512 1509 1508 1509 1509 1510 1510 1508 1508 1513 1514 1507 1508 1523 1532 1533 1533 1532 1530 1528 1528 1528 1527 1527 1528 1527 1528 1527 1526 1527 1529 1531 1532 1532 1531 1531 1530 1530 1530 1529 1529 1528 1528 1527 1527 1526 1526 1526 1527 1526 1527 1527 1526 1527 1529 1529 1529 1530 1533 1535 1536 1538 1540 1542 1545 1548 1549 1551 1553 1555 1557 1559 1561 1563 1564
1509 1507 1505 1507 1508 1507 1508 1510 1509 1510 1515 1515 1509 1506 1506 1506 1508 1510 1510 1513 1520 1522 1511 1508 1521 1536 1541 1538 1535 1533 1530 1530 1531 1529 1529 1529 1529 1528 1527 1527 1527 1529 1531 1532 1532 1532 1531 1531 1530 1529 1529 1528 1527 1527 1526 1525 1525 1524 1524 1524 1525 1525 1525 1524 1525 1526 1527 1527 1528 1530 1531 1533 1534 1536 1539 1543 1546 1547 1550 1552 1554 1556 1558 1560 1562 1563
1510 1508 1508 1509 1509 1510 1512 1512 1510 1509 1514 1515 1507 1504 1505 1505 1508 1510 1511 1515 1518 1517 1514 1511 1513 1526 1542 1543 1536 1534 1533 1533 1533 1531 1531 1530 1529 1528 1527 1527 1528 1529 1531 1532 1532 1532 1531 1531 1530 1530 1529 1528 1527 1526 1526 1525 1524 1523 1523 1523 1523 1523 1523 1523 1523 1524 1525 1526 1527 1528 1529 1531 1533 1535 1538 1541 1544 1546 1548 1550 1552 1555 1557 1558 1560 1561
1511 1511 1512 1510 1511 1514 1514 1513 1510 1508 1512 1511 1504 1503 1505 1505 1506 1507 1510 1514 1514 1517 1521 1517 1511 1522 1541 1542 1536 1535 1535 1536 1535 1532 1531 1530 1528 1528 1527 1528 1528 1529 1531 1532 1532 1531 1531 1531 1531 1530 1529 1528 1527 1526 1526 1524 1523 1522 1522 1522 1522 1522 1522 1522 1522 1522 1523 1525 1526 1527 1528 1530 1531 1534 1537 1540 1543 1544 1546 1549 1551 1553 1555 1557 1558 1560
1513 1512 1511 1510 1513 1515 1513 1510 1508 1508 1510 1507 1503 1504 1505 1506 1506 1506 1510 1513 1515 1522 1527 1520 1513 1524 1540 1541 1537 1537 1536 1535 1534 1532 1530 1529 1528 1528 1528 1528 1529 1530 1531 1532 1532 1532 1531 1531 1531 1531 1530 1529 1528 1526 1526 1525 1523 1522 1522 1522 1521 1521 1522 1521 1521 1521 1522 1524 1525 1526 1528 1529 1530 1532 1535 1538 1541 1543 1545 1547 1548 1550 1552 1554 1556 1557
1513 1511 1510 1510 1512 1512 1510 1509 1507 1508 1509 1505 1505 1506 1507 1509 1508 1509 1512 1514 1521 1530 1529 1523 1517 1522 1535 1539 1536 1535 1532 1530 1530 1531 1530 1529 1528 1528 1528 1528 1529 1530 1531 1532 1532 1532 1532 1532 1532 1532 1531 1530 1528 1527 1526 1525 1524 1523 1522 1522 1521 1521 1521 1521 1521 1521 1522 1523 1524 1524 1526 1528 1528 1529 1532 1535 1538 1540 1542 1544 1546 1548 1549 1551 1553 1554
1512 1510 1510 1510 1510 1510 1509 1509 1508 1507 1507 1507 1508 1510 1514 1517 1516 1517 1518 1519 1531 1537 1530 1525 1522 1522 1532 1535 1531 1530 1528 1527 1528 1528 1528 1528 1528 1529 1529 1529 1530 1530 1531 1532 1532 1532 1532 1532 1532 1532 1531 1530 1529 1527 1526 1525 1525 1523 1523 1522 1522 1521 1521 1521 1521 1521 1521 1522 1523 1523 1524 1525 1526 1527 1529 1532 1535 1537 1539 1541 1543 1545 1547 1548 1550 1552
1515 1512 1512 1511 1509 1509 1510 1512 1511 1509 1508 1510 1512 1516 1524 1530 1531 1532 1532 1531 1536 1536 1530 1526 1523 1526 1532 1531 1529 1529 1527 1527 1527 1526 1527 1527 1528 1528 1529 1529 1530 1531 1531 1531 1531 1531 1531 1532 1532 1532 1531 1531 1529 1528 1527 1526 1525 1524 1523 1523 1522 1522 1522 1521 1521 1521 1521 1521 1522 1522 1522 1522 1524 1525 1527 1530 1532 1535 1536 1538 1540 1542 1544 1546 1547 1549
1521 1517 1513 1511 1510 1508 1510 1515 1518 1515 1513 1515 1516 1520 1528 1536 1543 1545 1542 1541 1539 1533 1529 1526 1525 1532 1536 1530 1528 1528 1527 1526 1526 1526 1527 1527 1527 1528 1529 1530 1530 1530 1530 1530 1531 1531 1531 1531 1531 1531 1531 1531 1530 1529 1528 1527 1525 1524 1524 1523 1523 1522 1521 1521 1521 1521 1521 1521 1521 1520 1520 1521 1522 1524 1526 1528 1531 1533 1534 1536 1538 1541 1542 1544 1545 1547
1531 1527 1517 1514 1514 1511 1510 1513 1515 1515 1516 1517 1516 1519 1524 1530 1538 1543 1541 1541 1541 1536 1531 1527 1527 1534 1536 1531 1528 1527 1526 1526 1526 1527 1528 1528 1528 1529 1529 1529 1529 1529 1530 1530 1530 1531 1531 1531 1531 1531 1531 1531 1530 1529 1528 1527 1526 1525 1524 1524 1523 1522 1522 1521 1521 1521 1521 1520 1520 1520 1520 1520 1521 1522 1524 1527 1529 1531 1532 1534 1537 1539 1541 1542 1544 1545
1534 1530 1518 1513 1513 1511 1512 1511 1510 1513 1518 1519 1517 1519 1524 1524 1527 1535 1539 1539 1539 1540 1535 1530 1531 1533 1531 1528 1527 1527 1527 1526 1527 1527 1527 1528 1528 1528 1528 1529 1529 1529 1529 1530 1530 1530 1530 1530 1530 1530 1530 1530 1530 1529 1529 1527 1526 1525 1525 1524 1524 1523 1522 1522 1521 1521 1521 1520 1520 1520 1520 1519 1519 1521 1523 1526 1527 1528 1530 1533 1535 1537 1539 1540 1542 1543
1533 1528 1516 1513 1512 1510 1512 1511 1509 1514 1519 1520 1521 1523 1524 1521 1522 1531 1540 1539 1539 1543 1539 1533 1534 1535 1532 1529 1527 1527 1527 1526 1526 1526 1526 1527 1527 1527 1528 1528 1528 1528 1529 1529 1529 1529 1529 1529 1530 1529 1529 1530 1530 1529 1529 1528 1527 1526 1525 1524 1524 1523 1523 1523 1522 1521 1521 1521 1520 1519 1519 1518 1518 1519 1521 1523 1525 1526 1529 1532 1535 1536 1537 1539 1540 1541
1529 1527 1518 1515 1515 1511 1510 1511 1510 1511 1514 1518 1523 1523 1521 1523 1524 1529 1539 1543 1545 1547 1541 1534 1534 1536 1535 1532 1528 1527 1526 1526 1526 1525 1525 1526 1526 1526 1527 1527 1528 1528 1529 1529 1529 1529 1529 1529 1529 1529 1529 1529 1529 1529 1529 1528 1527 1526 1525 1524 1524 1523 1524 1524 1522 1521 1521 1521 1520 1519 1518 1518 1518 1518 1520 1522 1524 1526 1529 1532 1534 1535 1536 1537 1539 1540
1524 1528 1522 1515 1516 1514 1509 1512 1514 1513 1512 1515 1518 1517 1520 1528 1532 1533 1538 1542 1546 1548 1541 1535 1536 1536 1532 1528 1526 1526 1525 1524 1525 1524 1524 1525 1525 1526 1526 1527 1528 1528 1529 1529 1529 1529 1529 1529 1529 1529 1529 1529 1528 1529 1528 1528 1527 1526 1526 1525 1524 1523 1523 1523 1521 1520 1520 1520 1519 1519 1518 1517 1517 1518 1520 1522 1523 1526 1528 1530 1531 1532 1534 1535 1537 1539
1521 1529 1527 1517 1515 1515 1513 1515 1520 1520 1515 1513 1515 1517 1519 1525 1530 1533 1534 1536 1540 1544 1541 1539 1539 1532 1524 1520 1520 1520 1520 1521 1523 1523 1523 1523 1524 1525 1526 1527 1527 1528 1528 1529 1529 1529 1529 1529 1529 1528 1529 1528 1528 1528 1528 1527 1527 1527 1527 1525 1525 1524 1523 1522 1520 1520 1520 1519 1519 1519 1517 1516 1516 1517 1520 1521 1523 1525 1526 1528 1530 1531 1532 1533 1535 1537
1520 1526 1529 1522 1517 1519 1519 1519 1521 1522 1520 1519 1520 1522 1522 1524 1527 1530 1532 1532 1534 1538 1539 1540 1538 1526 1515 1513 1513 1514 1516 1518 1519 1520 1521 1522 1523 1524 1525 1525 1526 1527 1527 1528 1528 1529 1529 1529 1528 1528 1528 1528 1528 1528 1528 1527 1527 1527 1526 1525 1525 1524 1523 1522 1521 1520 1519 1519 1519 1519 1518 1517 1515 1516 1519 1521 1522 1524 1526 1527 1528 1530 1531 1532 1534 1536
1521 1525 1529 1526 1522 1522 1522 1519 1518 1518 1520 1521 1522 1522 1522 1524 1527 1532 1535 1532 1532 1534 1533 1535 1534 1520 1510 1511 1511 1512 1514 1515 1516 1518 1519 1520 1521 1522 1523 1524 1525 1526 1526 1527 1528 1528 1528 1528 1528 1528 1528 1528 1528 1528 1528 1527 1527 1527 1526 1526 1525 1525 1524 1523 1522 1521 1520 1520 1520 1519 1519 1519 1518 1516 1519 1522 1522 1524 1525 1527 1528 1529 1530 1532 1533 1535
1519 1524 1528 1528 1526 1525 1522 1519 1518 1517 1516 1518 1521 1521 1522 1523 1525 1531 1534 1531 1531 1532 1528 1532 1533 1519 1509 1510 1510 1511 1513 1513 1515 1516 1517 1519 1520 1521 1522 1523 1524 1525 1526 1527 1527 1527 1528 1528 1527 1527 1527 1527 1527 1527 1527 1527 1526 1526 1526 1526 1526 1525 1524 1523 1523 1522 1522 1523 1522 1520 1520 1522 1521 1518 1519 1521 1523 1524 1525 1526 1527 1528 1529 1531 1533 1534
1519 1524 1528 1529 1527 1523 1520 1517 1516 1516 1516 1518 1521 1521 1522 1521 1521 1524 1526 1527 1530 1529 1527 1533 1534 1520 1510 1510 1510 1511 1512 1513 1514 1515 1515 1517 1519 1520 1521 1522 1524 1524 1525 1526 1527 1527 1528 1527 1527 1527 1527 1527 1527 1527 1527 1527 1526 1526 1526 1526 1526 1525 1524 1523 1523 1523 1524 1524 1524 1522 1522 1524 1524 1521 1520 1522 1524 1524 1525 1526 1527 1528 1528 1531 1533 1534
1521 1524 1527 1532 1532 1529 1526 1524 1521 1518 1517 1519 1520 1520 1520 1519 1520 1522 1524 1527 1530 1526 1525 1531 1529 1518 1512 1511 1511 1512 1513 1513 1514 1514 1514 1516 1517 1519 1521 1521 1523 1524 1524 1526 1526 1527 1527 1527 1527 1527 1527 1527 1527 1527 1527 1527 1527 1526 1526 1526 1526 1525 1524 1523 1523 1523 1523 1524 1524 1523 1523 1524 1524 1522 1522 1523 1524 1525 1525 1526 1527 1527 1528 1531 1532 1533
1520 1523 1525 1531 1537 1537 1535 1531 1526 1521 1519 1519 1518 1518 1518 1518 1519 1522 1524 1528 1530 1526 1524 1525 1522 1516 1513 1512 1512 1513 1513 1513 1514 1514 1514 1515 1517 1518 1519 1520 1522 1523 1524 1525 1526 1527 1527 1526 1527 1527 1527 1527 1527 1527 1527 1528 1527 1527 1526 1526 1525 1525 1524 1523 1522 1522 1522 1523 1523 1523 1523 1523 1523 1522 1522 1523 1524 1525 1525 1526 1526 1526 1528 1530 1531 1532
1519 1522 1522 1525 1530 1530 1528 1524 1520 1519 1520 1519 1517 1516 1516 1517 1518 1520 1525 1528 1526 1524 1524 1520 1516 1515 1514 1513 1513 1513 1512 1513 1513 1514 1514 1515 1516 1517 1518 1519 1521 1522 1523 1524 1525 1526 1526 1526 1526 1526 1527 1527 1527 1527 1527 1528 1527 1527 1526 1525 1524 1524 1524 1523 1522 1522 1522 1522 1522 1522 1522 1522 1522 1521 1521 1522 1523 1524 1525 1526 1527 1527 1528 1529 1530 1532
1520 1522 1521 1521 1522 1521 1520 1518 1515 1516 1518 1517 1516 1515 1514 1516 1518 1521 1523 1522 1520 1523 1523 1515 1512 1515 1512 1510 1511 1511 1510 1511 1511 1512 1512 1513 1514 1516 1517 1518 1520 1521 1522 1523 1524 1525 1525 1526 1526 1526 1526 1527 1527 1527 1527 1527 1527 1526 1526 1525 1525 1524 1524 1524 1523 1522 1522 1522 1522 1521 1521 1521 1521 1521 1521 1521 1522 1523 1524 1525 1527 1528 1528 1529 1530 1532
1519 1522 1519 1519 1520 1517 1516 1516 1515 1515 1517 1516 1514 1514 1512 1513 1516 1518 1518 1516 1516 1518 1515 1509 1510 1511 1507 1506 1507 1506 1506 1508 1508 1509 1510 1511 1513 1514 1516 1517 1519 1520 1521 1522 1523 1524 1525 1525 1525 1526 1526 1527 1527 1527 1526 1527 1527 1526 1525 1526 1525 1525 1525 1524 1524 1523 1522 1522 1522 1522 1521 1521 1521 1521 1521 1521 1521 1522 1523 1524 1525 1527 1527 1528 1529 1531
1517 1519 1518 1518 1519 1516 1514 1515 1515 1515 1517 1515 1512 1511 1510 1510 1511 1512 1511 1510 1511 1511 1507 1506 1509 1506 1502 1502 1503 1503 1504 1505 1507 1508 1509 1510 1512 1513 1515 1516 1517 1518 1520 1521 1522 1523 1524 1525 1525 1525 1525 1526 1527 1527 1527 1527 1527 1526 1526 1526 1526 1525 1525 1525 1524 1523 1523 1523 1522 1522 1522 1521 1521 1521 1521 1521 1521 1521 1522 1523 1524 1525 1526 1527 1528 1529
1516 1518 1517 1517 1520 1517 1512 1512 1514 1515 1514 1512 1509 1509 1510 1510 1510 1510 1509 1507 1508 1508 1505 1506 1508 1505 1501 1500 1500 1501 1503 1505 1506 1507 1508 1509 1511 1512 1513 1514 1515 1516 1518 1519 1521 1522 1523 1524 1524 1524 1524 1525 1526 1527 1527 1527 1527 1527 1527 1527 1526 1526 1525 1525 1524 1524 1524 1523 1523 1522 1522 1522 1521 1522 1522 1522 1522 1522 1522 1522 1522 1523 1524 1524 1525 1526
1515 1518 1517 1518 1522 1520 1511 1511 1514 1514 1514 1514 1511 1508 1507 1507 1507 1506 1504 1503 1503 1503 1504 1506 1507 1503 1499 1499 1499 1501 1502 1503 1505 1505 1506 1508 1509 1510 1511 1511 1512 1514 1515 1517 1519 1521 1522 1523 1523 1524 1524 1525 1526 1526 1527 1527 1527 1527 1527 1527 1527 1526 1526 1526 1525 1525 1524 1524 1523 1523 1522 1522 1521 1521 1522 1522 1522 1522 1522 1522 1522 1522 1522 1522 1522 1523
1513 1515 1516 1519 1524 1519 1512 1513 1513 1513 1518 1517 1508 1502 1501 1503 1503 1501 1499 1499 1498 1499 1501 1503 1501 1497 1496 1498 1500 1501 1502 1502 1503 1503 1504 1506 1507 1508 1508 1509 1510 1512 1513 1515 1517 1519 1521 1522 1523 1524 1524 1525 1526 1526 1527 1527 1527 1527 1527 1527 1527 1527 1526 1526 1526 1525 1525 1524 1524 1523 1522 1522 1521 1521 1521 1521 1521 1522 1522 1522 1522 1522 1522 1521 1521 1521
1511 1513 1515 1519 1521 1518 1514 1513 1513 1517 1520 1510 1496 1491 1494 1497 1498 1498 1497 1495 1495 1495 1496 1496 1494 1495 1496 1497 1498 1499 1499 1499 1499 1500 1501 1503 1504 1506 1507 1507 1509 1510 1511 1513 1515 1517 1519 1520 1522 1522 1522 1524 1526 1527 1527 1527 1527 1526 1527 1527 1527 1527 1527 1527 1526 1526 1525 1525 1524 1523 1523 1522 1521 1521 1521 1520 1520 1520 1520 1520 1520 1520 1520 1520 1520 1520
1509 1511 1514 1516 1518 1518 1514 1514 1518 1520 1511 1498 1490 1490 1490 1491 1493 1494 1494 1493 1493 1494 1493 1493 1493 1494 1494 1494 1494 1495 1495 1495 1497 1499 1500 1502 1503 1504 1505 1506 1508 1509 1510 1511 1513 1515 1518 1519 1520 1520 1521 1523 1525 1526 1527 1527 1527 1526 1527 1527 1528 1527 1527 1527 1527 1526 1526 1525 1524 1524 1523 1522 1522 1521 1520 1520 1519 1519 1519 1519 1519 1518 1518 1518 1518 1518
1506 1510 1512 1514 1516 1517 1516 1518 1520 1514 1502 1494 1493 1491 1489 1490 1492 1493 1494 1492 1490 1491 1491 1491 1492 1492 1492 1493 1493 1494 1495 1496 1498 1499 1500 1502 1503 1503 1505 1506 1507 1508 1508 1510 1512 1514 1516 1518 1519 1518 1520 1522 1523 1524 1526 1526 1526 1526 1527 1527 1528 1527 1527 1527 1527 1527 1526 1525 1525 1524 1523 1523 1522 1521 1521 1520 1519 1519 1518 1518 1518 1517 1517 1516 1516 1517
1502 1506 1509 1513 1515 1516 1518 1518 1515 1510 1504 1498 1493 1489 1488 1489 1489 1491 1494 1491 1487 1488 1489 1489 1491 1492 1492 1492 1493 1494 1496 1498 1500 1500 1500 1501 1502 1503 1504 1505 1506 1507 1508 1509 1512 1513 1515 1517 1518 1518 1520 1521 1522 1523 1524 1525 1526 1526 1527 1527 1527 1527 1527 1527 1527 1527 1526 1525 1525 1524 1524 1523 1522 1522 1521 1521 1520 1519 1518 1518 1517 1517 1516 1516 1515 1515
1498 1502 1506 1511 1513 1514 1517 1518 1516 1514 1509 1498 1490 1487 1486 1486 1486 1488 1493 1492 1486 1485 1485 1486 1488 1490 1490 1491 1493 1495 1497 1501 1502 1500 1498 1499 1501 1502 1503 1504 1505 1506 1508 1509 1511 1513 1515 1516 1517 1518 1519 1520 1521 1522 1523 1524 1525 1526 1526 1527 1527 1527 1527 1527 1527 1526 1526 1525 1525 1524 1524 1523 1523 1522 1522 1521 1520 1520 1519 1518 1518 1517 1517 1516 1516 1515
1497 1500 1503 1507 1511 1512 1515 1518 1519 1516 1506 1493 1487 1486 1486 1486 1486 1489 1496 1495 1486 1482 1483 1484 1485 1487 1487 1489 1492 1494 1498 1502 1501 1496 1495 1497 1499 1500 1502 1503 1504 1506 1507 1508 1510 1512 1514 1515 1516 1517 1518 1519 1520 1521 1522 1523 1524 1524 1525 1526 1526 1527 1527 1527 1526 1526 1525 1525 1525 1524 1524 1523 1523 1522 1522 1521 1520 1520 1520 1519 1518 1518 1518 1517 1517 1516
1499 1502 1504 1507 1509 1510 1513 1515 1515 1509 1498 1489 1485 1486 1486 1485 1485 1494 1504 1496 1482 1480 1483 1482 1483 1485 1485 1486 1489 1492 1494 1496 1495 1492 1493 1495 1497 1499 1500 1502 1503 1506 1507 1508 1510 1512 1513 1514 1515 1516 1517 1519 1520 1520 1521 1522 1522 1523 1524 1525 1525 1526 1526 1526 1526 1526 1525 1525 1525 1525 1524 1523 1523 1522 1522 1521 1521 1520 1520 1519 1519 1519 1518 1518 1518 1517
1500 1501 1505 1506 1507 1509 1512 1513 1511 1503 1492 1486 1484 1484 1485 1486 1491 1500 1500 1487 1478 1481 1483 1481 1482 1483 1484 1485 1487 1488 1488 1489 1490 1491 1492 1494 1497 1499 1500 1502 1504 1505 1507 1508 1510 1511 1512 1513 1514 1515 1516 1518 1519 1519 1520 1521 1521 1522 1523 1524 1524 1525 1525 1525 1525 1525 1525 1525 1525 1525 1524 1524 1523 1522 1522 1522 1521 1521 1520 1520 1519 1519 1519 1519 1518 1518
1499 1501 1504 1505 1506 1508 1508 1509 1511 1503 1488 1480 1482 1484 1484 1489 1494 1493 1485 1477 1478 1481 1480 1481 1482 1483 1483 1485 1485 1486 1487 1489 1489 1490 1491 1493 1495 1498 1500 1502 1503 1505 1506 1507 1509 1510 1511 1512 1513 1514 1515 1516 1517 1518 1519 1519 1520 1521 1522 1522 1523 1523 1523 1523 1524 1524 1525 1525 1525 1525 1525 1524 1524 1523 1522 1522 1522 1521 1521 1521 1520 1520 1519 1519 1519 1518
1493 1496 1501 1501 1501 1504 1507 1509 1511 1502 1484 1476 1481 1484 1484 1486 1486 1481 1477 1478 1479 1479 1479 1481 1482 1482 1483 1484 1485 1486 1488 1488 1489 1490 1491 1493 1495 1497 1499 1501 1502 1504 1505 1506 1508 1509 1510 1511 1512 1513 1514 1515 1516 1517 1518 1518 1519 1520 1521 1521 1521 1522 1522 1522 1522 1523 1524 1524 1524 1525 1525 1525 1524 1524 1523 1523 1523 1523 1522 1522 1521 1521 1520 1519 1519 1518
1488 1490 1494 1494 1493 1498 1503 1503 1498 1488 1478 1475 1478 1480 1480 1479 1478 1476 1477 1478 1478 1479 1480 1480 1480 1481 1482 1482 1484 1487 1487 1488 1490 1491 1492 1494 1495 1497 1499 1500 1501 1503 1504 1505 1507 1508 1509 1510 1511 1512 1513 1514 1515 1515 1516 1517 1518 1519 1520 1520 1520 1520 1520 1520 1521 1522 1522 1523 1524 1524 1525 1525 1525 1525 1524 1524 1524 1524 1523 1523 1522 1521 1520 1520 1519 1519
1481 1479 1480 1482 1484 1485 1487 1485 1479 1475 1474 1475 1475 1474 1475 1476 1476 1477 1477 1477 1477 1478 1478 1478 1479 1480 1480 1481 1483 1485 1486 1488 1489 1490 1492 1494 1495 1496 1498 1499 1500 1502 1503 1504 1506 1507 1508 1510 1510 1511 1512 1513 1513 1514 1515 1516 1517 1518 1519 1519 1519 1519 1519 1519 1520 1521 1521 1522 1523 1524 1524 1525 1525 1525 1525 1525 1525 1525 1524 1524 1523 1522 1521 1520 1520 1519
1473 1472 1473 1475 1477 1478 1476 1474 1473 1473 1473 1472 1473 1473 1474 1474 1474 1475 1475 1475 1476 1477 1477 1478 1479 1479 1480 1482 1483 1484 1486 1487 1488 1490 1492 1493 1494 1495 1497 1498 1500 1501 1502 1504 1505 1506 1507 1509 1510 1511 1511 1512 1513 1514 1514 1515 1516 1517 1518 1518 1518 1517 1517 1518 1519 1519 1520 1521 1522 1523 1524 1524 1525 1525 1525 1525 1525 1525 1525 1524 1524 1523 1522 1521 1521 1520
1470 1472 1474 1474 1476 1479 1477 1472 1470 1471 1471 1470 1471 1472 1472 1472 1473 1473 1474 1474 1475 1475 1477 1477 1478 1480 1481 1482 1482 1484 1486 1487 1488 1490 1491 1492 1493 1495 1496 1497 1499 1500 1501 1502 1504 1505 1506 1507 1509 1510 1511 1511 1512 1513 1513 1514 1515 1516 1517 1517 1516 1516 1516 1517 1517 1518 1519 1520 1521 1522 1523 1523 1524 1524 1524 1524 1524 1525 1525 1525 1524 1524 1523 1522 1522 1521
1472 1472 1474 1474 1475 1476 1473 1469 1468 1470 1470 1469 1470 1470 1470 1470 1471 1471 1472 1473 1474 1475 1476 1476 1477 1479 1480 1481 1483 1484 1485 1487 1488 1489 1490 1491 1492 1493 1495 1496 1498 1499 1501 1502 1503 1504 1505 1506 1508 1509 1510 1511 1511 1512 1513 1513 1514 1515 1515 1515 1515 1515 1515 1516 1516 1516 1517 1518 1520 1521 1521 1522 1523 1523 1524 1524 1524 1525 1525 1525 1525 1524 1524 1523 1523 1523
1473 1473 1472 1472 1472 1472 1470 1467 1467 1468 1468 1467 1468 1468 1468 1468 1469 1470 1472 1472 1473 1474 1475 1475 1476 1477 1478 1480 1481 1482 1484 1486 1487 1488 1489 1490 1491 1492 1494 1495 1497 1498 1500 1501 1502 1503 1503 1504 1506 1508 1509 1510 1511 1511 1512 1512 1513 1514 1514 1514 1515 1515 1515 1515 1515 1515 1516 1517 1518 1520 1520 1521 1522 1522 1523 1523 1524 1524 1525 1525 1525 1525 1525 1524 1524 1524
1473 1473 1471 1471 1472 1472 1469 1466 1466 1468 1469 1467 1466 1465 1465 1466 1468 1469 1470 1471 1472 1473 1474 1475 1476 1477 1478 1479 1479 1481 1483 1485 1486 1487 1488 1489 1490 1491 1492 1494 1495 1497 1498 1499 1501 1502 1502 1503 1504 1505 1507 1508 1509 1510 1511 1511 1512 1513 1513 1514 1514 1514 1514 1514 1514 1514 1515 1516 1518 1519 1519 1520 1521 1522 1522 1523 1523 1524 1525 1525 1525 1525 1525 1525 1525 1525
1471 1470 1469 1470 1471 1470 1467 1465 1466 1467 1466 1464 1463 1463 1463 1464 1466 1467 1468 1469 1470 1471 1473 1474 1475 1476 1477 1478 1478 1479 1480 1482 1485 1487 1487 1488 1490 1491 1492 1493 1494 1495 1497 1498 1499 1501 1502 1502 1503 1504 1505 1506 1507 1508 1509 1509 1510 1511 1512 1513 1514 1514 1514 1514 1514 1514 1515 1516 1517 1517 1518 1519 1520 1521 1522 1522 1523 1524 1524 1524 1525 1525 1525 1525 1525 1525